SCP
0 0 0 0 0 0 0 0 0 0 0 0 0 0 0 0 0 0 0 0 1 1 1 1 1 1 1 2 2 2 1 1 1 1 1 1 1 1 1 1 1 1 1 1
0 0 0 0 0 0 0 0 0 0 0 0 0 0 0 0 0 0 0 0 1 1 1 1 1 1 1 2 2 1 1 1 1 1 1 1 1 1 1 1 1 1 1 1
0 0 0 0 0 0 0 0 0 0 0 0 0 0 0 0 0 0 0 0 1 1 1 1 1 1 1 1 1 1 1 1 1 1 1 1 1 1 1 1 1 1 1 1
0 0 0 0 0 0 0 0 0 0 0 0 0 0 0 0 0 0 0 0 1 1 1 1 1 1 1 1 1 1 2 2 1 1 1 1 1 1 1 1 1 1 1 0
0 0 0 0 0 0 0 0 0 0 0 0 0 0 0 0 0 0 0 1 1 1 1 1 1 1 1 1 1 1 2 2 2 1 1 1 1 1 1 1 1 1 1 1
0 0 0 0 0 0 0 0 0 0 0 0 0 0 0 0 0 0 1 1 1 1 1 1 1 1 1 1 1 1 1 2 2 1 1 1 1 1 1 1 1 1 1 1
0 0 0 0 0 0 0 0 0 0 0 0 0 0 0 0 0 1 1 1 1 1 1 1 1 1 1 1 1 1 1 1 1 1 1 1 1 1 1 1 1 1 1 1
0 0 0 0 0 0 0 0 0 0 0 0 0 0 0 1 1 1 1 1 1 1 1 1 1 1 1 1 1 1 1 1 1 1 1 1 1 1 1 1 1 1 1 1
0 0 0 0 0 0 0 0 0 0 0 0 0 0 0 1 1 1 1 1 1 1 1 1 1 2 2 2 2 2 2 1 1 1 1 1 1 1 1 1 1 1 1 1
0 0 0 0 0 0 0 0 0 0 0 0 0 0 0 1 1 1 1 1 1 1 1 1 1 2 2 2 2 2 2 1 1 1 1 1 1 1 1 1 1 1 1 1
0 0 0 0 0 0 0 0 0 0 0 0 0 0 0 1 1 1 1 1 1 1 1 1 1 2 2 2 2 2 2 2 1 1 1 1 1 1 1 1 1 1 1 1
0 0 0 0 0 0 0 0 0 0 0 0 0 0 0 1 1 1 1 1 1 1 1 1 1 2 2 2 2 2 2 2 1 1 1 1 1 1 1 1 1 1 1 1
0 0 0 0 0 0 0 0 0 0 0 0 0 0 1 1 1 1 1 1 1 1 1 1 2 2 2 2 2 2 2 2 1 1 1 1 1 1 1 1 1 1 1 1
0 0 0 0 0 0 0 0 0 0 0 0 0 0 1 1 1 1 1 1 1 1 1 2 2 2 2 2 2 2 2 2 1 1 1 1 1 1 1 1 1 1 1 1
0 0 0 0 0 0 0 0 0 0 0 0 0 0 1 1 1 1 1 1 1 1 1 1 2 2 2 2 2 2 2 2 2 1 1 1 1 1 1 1 1 1 1 1
0 0 0 0 0 0 0 0 0 0 0 0 0 0 1 1 1 1 1 1 1 1 1 1 2 2 2 2 2 2 2 2 2 2 1 1 1 1 1 1 1 1 1 1
0 0 0 0 0 0 0 0 0 0 0 0 0 0 1 1 1 1 1 1 1 1 1 1 1 2 2 2 2 2 2 2 2 2 1 1 1 1 1 1 1 1 1 1
0 0 0 0 0 0 0 0 0 0 0 0 0 0 1 1 1 1 1 1 1 1 1 1 1 1 1 2 2 2 2 2 2 2 1 1 1 1 1 1 1 1 1 1
0 0 0 0 0 0 0 0 0 0 0 0 0 0 1 1 1 1 1 1 1 1 1 1 1 1 1 2 2 2 2 2 2 1 1 1 1 1 1 1 1 1 1 1
0 0 0 0 0 0 0 0 0 0 0 0 0 0 0 1 1 1 1 1 1 1 1 1 1 1 1 1 2 2 2 1 1 1 1 1 1 1 1 1 1 1 1 1
0 0 0 0 0 0 0 0 0 0 0 0 0 0 0 0 0 0 1 1 1 1 1 1 1 1 1 1 1 1 1 1 1 1 1 1 1 1 1 1 1 1 1 1
0 0 0 0 0 0 0 0 0 0 0 0 0 0 0 0 0 0 0 0 1 1 1 1 1 1 1 1 1 1 1 1 1 1 1 1 1 1 1 1 1 1 1 1
0 0 0 0 0 0 0 0 0 0 0 0 0 0 0 0 0 0 0 0 1 1 1 1 1 1 1 1 1 1 1 1 1 1 1 1 1 1 1 1 1 1 1 1
0 0 0 0 0 0 0 0 0 0 0 0 0 0 0 0 0 0 0 0 1 1 1 0 0 0 1 1 1 1 1 1 1 1 1 1 1 1 1 1 1 1 1 1
0 0 0 0 0 0 0 0 0 0 0 0 0 0 0 0 0 0 0 1 1 1 1 0 0 0 0 0 0 0 0 0 1 1 1 0 0 0 0 0 0 0 0 0
0 0 0 0 0 0 0 0 0 0 0 0 0 0 0 0 0 0 0 1 1 1 0 0 0 0 0 0 0 0 0 0 0 0 0 0 0 0 0 0 0 0 0 0
Wind_Speed
14 14 14 15 16 15 14 12 11 8 6 9 9 9 8 7 7 8 8 8 8 8 8 9 10 11 10 8 7 6 5 4 3 3 3 2 2 2 2 2 3 2 2 1
13 16 16 15 14 14 14 13 13 9 6 7 8 8 8 8 8 7 7 8 9 10 10 8 8 9 9 8 7 6 5 5 4 3 2 2 2 2 2 2 2 2 1 1
17 14 12 12 13 13 14 13 12 10 7 7 7 9 10 10 10 10 10 10 10 11 12 10 9 8 9 9 8 7 5 5 3 3 2 2 2 1 2 2 2 1 1 1
15 15 12 13 14 13 12 13 13 12 9 8 10 9 9 9 10 10 10 10 10 11 13 12 10 9 9 9 8 6 6 5 4 3 2 3 2 2 2 2 2 2 1 1
14 14 13 13 13 13 12 12 12 11 9 10 11 10 9 9 11 11 11 11 10 10 11 12 11 10 8 8 8 7 6 5 4 3 3 2 2 2 2 2 2 3 2 2
15 13 12 12 11 12 12 12 11 10 9 12 13 12 10 9 10 11 10 10 9 10 11 10 10 10 8 8 8 8 7 5 4 4 3 2 2 2 2 2 2 2 2 2
15 15 13 11 13 12 12 10 8 8 9 11 11 11 7 5 7 9 10 10 10 9 11 11 11 11 10 9 9 9 8 6 5 4 4 3 2 2 2 2 2 1 1 2
12 12 12 11 12 11 11 12 9 9 9 9 10 10 5 5 6 6 7 8 9 8 9 11 11 10 10 10 9 9 9 7 6 5 4 3 3 3 2 1 1 1 1 1
8 10 9 10 10 11 12 12 11 11 13 12 8 6 4 6 7 7 7 6 7 7 7 8 9 10 9 9 8 8 8 7 6 6 5 4 3 2 2 2 2 1 1 1
9 10 10 8 9 13 13 11 8 9 10 11 10 9 6 9 9 9 9 8 7 7 7 7 7 9 8 8 7 7 7 7 6 6 5 5 4 3 2 2 1 1 1 0
10 10 10 9 11 12 12 13 11 9 10 10 9 5 2 5 6 8 8 7 6 6 6 6 6 6 7 7 8 7 6 6 6 6 4 4 5 4 3 3 2 2 1 1
7 7 9 11 11 10 11 11 10 8 9 9 9 3 2 5 5 5 5 5 5 5 5 6 6 7 7 7 7 6 5 5 5 5 4 4 4 4 3 3 2 2 2 2
4 5 7 9 9 8 9 11 10 9 7 9 10 4 3 6 6 5 5 5 4 4 5 5 5 5 5 5 6 5 5 4 4 5 5 4 4 4 3 3 2 2 2 2
5 7 10 11 8 6 9 12 11 11 9 9 10 6 4 6 5 6 6 5 4 5 5 5 4 2 2 3 4 5 5 4 4 4 4 4 4 3 3 3 3 3 3 2
5 9 11 13 13 12 12 12 12 12 12 11 9 7 2 3 4 6 6 5 5 5 4 4 4 2 2 2 2 3 4 4 3 3 4 4 4 4 4 3 3 3 3 3
4 7 11 13 14 13 13 13 12 12 12 12 9 6 2 5 4 5 4 4 4 4 3 4 3 2 1 1 1 2 2 3 3 3 4 3 3 4 4 4 4 4 3 2
6 7 9 11 13 13 13 11 10 10 9 9 7 2 3 4 4 3 3 3 3 3 3 4 3 2 1 1 1 1 1 2 3 3 3 3 3 4 4 5 4 3 2 2
7 7 7 10 11 13 8 5 5 5 5 5 3 0 2 3 4 5 3 3 3 3 4 3 2 2 2 2 1 1 1 2 2 2 2 2 2 3 3 3 3 2 2 2
8 7 6 8 10 11 7 3 4 4 4 3 3 2 4 4 3 5 5 5 5 5 4 3 3 2 1 1 1 1 0 1 2 2 2 2 2 2 2 3 3 2 2 1
7 6 7 8 10 10 4 2 3 4 4 2 2 2 3 2 2 2 5 6 6 5 4 3 2 2 2 2 1 1 0 1 2 2 2 2 2 2 2 3 3 2 2 2
8 8 9 11 11 7 3 3 3 4 1 4 3 2 1 2 2 3 5 6 5 4 3 3 2 2 2 1 1 1 0 1 1 1 1 2 1 2 3 3 2 2 2 2
6 6 7 8 10 5 4 3 2 3 3 4 5 3 4 5 4 4 5 4 4 3 2 2 2 2 2 2 1 1 1 1 1 1 1 1 2 2 2 2 2 2 2 2
5 4 3 3 2 2 3 3 3 2 3 4 4 4 3 3 3 4 3 3 3 2 2 2 1 2 2 2 1 1 1 1 1 2 1 1 1 2 2 2 2 2 1 2
5 3 4 4 3 2 0 2 2 3 3 3 2 2 3 2 2 2 2 2 2 2 1 1 1 2 1 2 1 1 1 1 1 1 1 1 1 2 2 1 1 1 1 1
7 5 5 6 3 3 1 2 2 3 2 1 1 2 2 2 2 2 2 1 2 2 1 1 1 2 1 1 1 1 1 1 1 0 1 0 1 1 2 1 1 1 2 1
6 5 5 4 2 3 3 1 1 1 1 1 0 1 2 1 2 2 2 1 1 1 1 1 2 2 2 1 2 2 2 1 1 0 1 1 1 1 2 2 2 4 3 4
Wind_Direction
219 226 231 227 229 242 262 265 265 257 210 218 221 220 220 222 201 186 179 172 168 159 142 139 141 141 140 139 139 138 144 146 155 156 174 172 165 159 146 136 124 137 149 166
226 230 240 243 239 244 254 259 262 254 235 225 232 228 229 226 208 193 183 183 176 161 146 141 142 144 145 145 146 145 147 155 166 160 167 161 150 156 130 108 120 133 146 178
231 233 231 242 250 249 254 258 261 260 242 240 245 241 232 224 210 195 187 190 177 165 157 155 155 151 150 149 151 155 153 152 161 152 148 141 130 151 136 139 132 126 129 136
240 240 232 234 243 247 250 254 262 265 254 246 239 247 236 221 203 195 191 188 177 167 161 160 160 160 157 153 150 143 141 143 153 156 159 163 157 153 138 133 140 144 159 166
243 237 234 236 240 246 253 257 260 260 254 256 256 251 236 220 205 199 192 184 176 169 166 162 163 164 160 153 148 142 136 138 147 159 155 159 150 146 137 133 146 157 160 167
255 253 243 242 245 250 257 263 264 259 251 246 244 250 242 224 212 192 179 175 173 171 159 157 162 160 159 154 151 148 144 145 146 151 145 144 137 131 132 147 168 179 157 159
244 246 240 236 242 239 243 249 246 240 239 247 242 240 240 207 200 174 168 168 173 169 159 160 168 163 161 161 156 152 149 152 158 158 154 155 158 167 167 172 177 189 164 158
240 239 234 225 233 239 236 243 244 250 251 252 244 240 229 167 157 150 154 159 162 166 166 168 167 162 166 163 157 154 155 160 166 165 157 168 180 198 177 182 209 184 153 153
251 248 235 226 227 242 239 240 248 259 269 271 257 228 194 172 154 149 151 166 166 166 168 168 161 160 164 160 155 153 156 164 168 167 166 174 174 180 178 199 229 160 169 183
268 274 251 226 229 239 244 241 243 249 260 264 256 238 207 175 171 165 166 177 170 162 160 160 154 156 157 150 148 149 157 168 167 168 177 173 174 180 189 200 189 168 163 171
266 269 263 244 233 238 239 240 242 249 253 262 263 251 198 163 163 163 164 161 155 159 158 150 145 144 146 149 153 155 161 169 173 174 177 169 178 181 193 205 196 187 187 205
263 272 264 254 249 247 246 249 245 254 261 263 266 257 94 113 112 133 137 146 141 148 149 140 141 143 154 157 157 158 163 174 178 172 174 178 180 184 196 196 188 190 200 220
284 269 262 251 240 235 248 251 252 253 262 263 264 237 143 120 116 115 119 120 116 113 117 122 130 141 154 152 154 160 171 177 178 174 180 180 190 189 196 190 193 201 208 218
266 255 257 261 271 272 263 265 263 255 251 255 259 249 187 144 132 119 109 109 117 107 107 111 107 112 120 135 149 164 177 179 178 178 180 182 189 190 198 199 201 209 217 215
260 259 261 268 271 266 262 262 263 263 262 261 259 254 207 113 119 113 118 127 114 111 110 107 110 97 87 117 155 170 182 179 174 184 180 184 188 193 200 198 207 212 221 223
244 269 275 269 267 262 263 264 261 259 263 265 261 262 141 118 107 109 113 116 108 103 111 110 107 96 79 74 197 178 177 167 170 195 188 178 191 196 197 200 205 208 215 222
249 259 270 268 270 268 260 258 255 253 261 273 276 292 105 122 123 115 112 97 89 93 78 91 87 70 55 11 6 156 175 167 176 195 196 187 201 201 198 204 199 198 196 201
246 256 261 268 268 259 264 274 268 266 270 280 275 218 116 92 92 92 86 95 98 88 79 74 86 71 31 18 37 38 163 172 175 186 202 202 203 192 189 185 178 173 167 196
227 237 255 263 262 260 257 258 281 276 280 310 315 5 57 56 86 85 74 81 82 78 69 62 62 81 47 41 52 50 60 163 170 182 197 200 198 185 174 159 157 156 159 190
215 215 239 258 265 268 290 2 334 279 241 358 12 36 69 49 293 77 64 70 78 76 73 63 55 73 70 44 62 87 62 209 218 206 197 193 167 160 170 159 161 161 166 192
221 221 230 248 259 270 344 347 289 252 333 4 360 51 84 61 44 83 79 77 80 75 75 66 50 67 73 54 57 99 25 338 301 224 172 151 147 157 160 155 156 153 176 188
246 248 245 252 256 265 20 9 9 40 27 22 19 35 66 80 85 85 78 72 74 80 75 70 63 64 61 57 52 59 16 337 359 36 121 132 137 168 152 141 152 158 182 190
255 263 275 274 272 5 16 39 51 46 29 23 16 49 84 105 109 99 91 82 72 60 50 46 68 83 80 66 46 24 8 349 36 57 70 115 131 129 121 139 161 168 191 216
270 277 274 274 244 244 340 40 35 36 33 24 29 71 86 95 105 111 115 111 109 97 78 69 75 79 74 68 40 19 32 14 40 71 82 115 135 129 131 157 166 164 197 226
296 281 254 256 266 282 265 31 16 9 14 25 58 93 110 118 132 125 131 132 129 125 119 120 133 119 95 79 64 30 30 56 36 69 129 133 181 158 137 103 44 71 59 54
289 286 269 271 316 301 309 343 321 313 296 291 96 104 107 135 154 143 144 137 143 155 172 169 163 146 136 125 85 50 22 21 30 358 296 234 200 170 159 137 96 52 78 98